Blythe, CA

10:20 PM PDT on March 26, 2017 (GMT -0700)
Blythe

Weather History for KBLH - May, 2014

Change the Weather History Date:

Sunday, May 11, 2014

  Actual Average Record
Temperature  
Mean Temperature 76 °F -  
Max Temperature 82 °F 93 °F 108 °F (1996)
Min Temperature 66 °F 62 °F 51 °F (1991)
Cooling Degree Days 10    
Growing Degree Days 26 (Base 50)    
Moisture  
Dew Point 17 °F    
Average Humidity 12    
Maximum Humidity 18    
Minimum Humidity 6    
Precipitation  
Precipitation 0.00 in - - ()
Sea Level Pressure  
Sea Level Pressure 29.80 in    
Wind  
Wind Speed 19 mph (NW)    
Max Wind Speed 28 mph    
Max Gust Speed 36 mph    
Visibility 9 miles    
Events      
Averages and records for this station are not official NWS values.
T = Trace of Precipitation, MM = Missing Value Source: NWS Daily Summary

Daily Weather History Graph

Daily Weather History Graph

Search for Another Location

Airport or City:

Trip Planner

Search our weather history database for the weather conditions in past years. The results will help you decide how hot, cold, wet, or windy it might be!

Date:

Astronomy

May. 11, 2014 Rise Set
Actual Time 5:41 AM PDT 7:29 PM PDT
Civil Twilight 5:14 AM PDT 7:57 PM PDT
Nautical Twilight 4:41 AM PDT 8:29 PM PDT
Astronomical Twilight 4:06 AM PDT 9:04 PM PDT
Moon 4:38 PM PDT (5/11) 3:38 AM PDT (5/11)
Length of Visible Light 14h 43m
Length of Day
13h 48m
Waxing Gibbous, 90% of the Moon is Illuminated
May 11
Waxing Gibbous
May 14
Full
May 21
Last Quarter
May 28
New
Jun 5
First Quarter

Hourly Weather History & Observations

Time (PDT) Temp. Dew Point Humidity Pressure Visibility Wind Dir Wind Speed Gust Speed Precip Events Conditions
12:52 AM 75.9 °F 21.9 °F 13% 29.66 in 6.0 mi NNW 26.5 mph 35.7 mph N/A   Haze
1:52 AM 75.0 °F 25.0 °F 16% 29.65 in 5.0 mi NW 26.5 mph - N/A   Haze
2:52 AM 73.9 °F 24.1 °F 16% 29.67 in 6.0 mi NW 16.1 mph - N/A   Haze
3:52 AM 73.0 °F 21.0 °F 14% 29.69 in 8.0 mi NW 15.0 mph 25.3 mph N/A   Overcast
4:52 AM 72.0 °F 19.9 °F 14% 29.71 in 8.0 mi NW 20.7 mph - N/A   Overcast
5:52 AM 69.1 °F 23.0 °F 18% 29.75 in 7.0 mi NNW 19.6 mph - N/A   Overcast
6:52 AM 70.0 °F 21.9 °F 16% 29.78 in 8.0 mi NNW 20.7 mph - N/A   Clear
7:52 AM 71.1 °F 21.0 °F 15% 29.81 in 10.0 mi NNW 24.2 mph 31.1 mph N/A   Clear
8:52 AM 73.0 °F 19.9 °F 14% 29.82 in 10.0 mi NNW 21.9 mph 33.4 mph N/A   Clear
9:52 AM 73.9 °F 16.0 °F 11% 29.83 in 9.0 mi NNW 24.2 mph 33.4 mph N/A   Clear
11:52 AM 79.0 °F 12.9 °F 8% 29.84 in 10.0 mi NNW 27.6 mph 35.7 mph N/A   Clear
12:52 PM 80.1 °F 10.9 °F 7% 29.83 in 10.0 mi NNW 24.2 mph 34.5 mph N/A   Clear
2:52 PM 80.1 °F 12.9 °F 8% 29.83 in 10.0 mi NW 9.2 mph 23.0 mph N/A   Clear
3:52 PM 81.0 °F 10.9 °F 7% 29.81 in 10.0 mi NW 10.4 mph 23.0 mph N/A   Clear
4:52 PM 82.9 °F 9.0 °F 6% 29.81 in 10.0 mi NNW 16.1 mph 23.0 mph N/A   Clear
5:52 PM 82.0 °F 10.0 °F 7% 29.81 in 10.0 mi NW 11.5 mph - N/A   Clear
6:52 PM 81.0 °F 10.9 °F 7% 29.82 in 10.0 mi NW 11.5 mph - N/A   Clear
7:52 PM 78.1 °F 12.0 °F 8% 29.84 in 10.0 mi WNW 9.2 mph - N/A   Clear
8:52 PM 73.0 °F 21.9 °F 15% 29.87 in 10.0 mi ESE 4.6 mph - N/A   Clear
9:52 PM 71.1 °F 16.0 °F 12% 29.89 in 10.0 mi WSW 4.6 mph - N/A   Clear
10:52 PM 71.1 °F 14.0 °F 11% 29.91 in 10.0 mi West 3.5 mph - N/A   Clear
11:52 PM 66.9 °F 14.0 °F 13% 29.91 in 10.0 mi Variable 5.8 mph - N/A   Clear